Chickamauga Lake Weather Center

Moon Phase Calendar



Chickamauga Lake Water Level
Online Cameras

 


      

Current Conditions in Sale Creek
5/22/2022 7:29:38 PM

72°F
Feels Like 73
Clouds
Humidity
87%
Pressure
29.68"
Wind
6.9 mph (SW)
Dew Point
68°F
UV Index
0/10 (Low)
Visibility
6 mi

Hourly Forecast

Date & Time Sun, May 22
7:00 PM
Sun, May 22
8:00 PM
Sun, May 22
9:00 PM
Sun, May 22
10:00 PM
Sun, May 22
11:00 PM
Mon, May 23
12:00 AM
Mon, May 23
1:00 AM
Mon, May 23
2:00 AM
Mon, May 23
3:00 AM
Mon, May 23
4:00 AM
Mon, May 23
5:00 AM
Mon, May 23
6:00 AM
Mon, May 23
7:00 AM
Mon, May 23
8:00 AM
Mon, May 23
9:00 AM
Mon, May 23
10:00 AM
Mon, May 23
11:00 AM
Mon, May 23
12:00 PM
Mon, May 23
1:00 PM
Mon, May 23
2:00 PM
Mon, May 23
3:00 PM
Mon, May 23
4:00 PM
Mon, May 23
5:00 PM
Mon, May 23
6:00 PM
Mon, May 23
7:00 PM
Mon, May 23
8:00 PM
Mon, May 23
9:00 PM
Mon, May 23
10:00 PM
Mon, May 23
11:00 PM
Tue, May 24
12:00 AM
Tue, May 24
1:00 AM
Tue, May 24
2:00 AM
Tue, May 24
3:00 AM
Tue, May 24
4:00 AM
Tue, May 24
5:00 AM
Tue, May 24
6:00 AM
Tue, May 24
7:00 AM
Tue, May 24
8:00 AM
Tue, May 24
9:00 AM
Tue, May 24
10:00 AM
Tue, May 24
11:00 AM
Tue, May 24
12:00 PM
Tue, May 24
1:00 PM
Tue, May 24
2:00 PM
Tue, May 24
3:00 PM
Tue, May 24
4:00 PM
Tue, May 24
5:00 PM
Tue, May 24
6:00 PM
Condition
Rain

Clouds

Clouds

Rain

Rain

Rain

Rain

Rain

Rain

Rain

Rain

Rain

Rain

Rain

Rain

Rain

Rain

Clouds

Rain

Rain

Rain

Rain

Rain

Clouds

Clouds

Clouds

Clouds

Clouds

Clouds

Clouds

Clouds

Clouds

Clouds

Clouds

Clouds

Clouds

Clouds

Clouds

Clouds

Clouds

Clouds

Clouds

Clouds

Clouds

Clouds

Clouds

Rain

Rain
Temperature 72°F71°F70°F68°F67°F66°F66°F66°F66°F65°F65°F65°F65°F65°F65°F65°F66°F67°F67°F67°F66°F66°F67°F68°F66°F65°F63°F62°F61°F61°F61°F61°F61°F60°F60°F61°F61°F62°F63°F64°F68°F71°F73°F75°F78°F80°F76°F75°F
Feels Like 73°F72°F71°F69°F68°F67°F67°F67°F67°F66°F66°F66°F66°F66°F66°F66°F67°F67°F68°F67°F67°F67°F68°F68°F67°F66°F64°F63°F62°F61°F61°F61°F61°F60°F61°F61°F61°F62°F63°F65°F68°F71°F74°F75°F78°F80°F77°F76°F
Cloudiness 100%97%100%100%100%100%100%100%100%100%100%100%100%100%100%100%100%100%100%100%100%100%100%100%100%100%100%100%100%100%100%100%98%95%96%97%98%98%100%100%100%100%100%100%98%93%95%95%
Visibility 5 mi6 mi6 mi6 mi6 mi6 mi6 mi6 mi6 mi6 mi5 mi4 mi2 mi1 mi1 mi3 mi6 mi6 mi6 mi6 mi6 mi6 mi6 mi6 mi6 mi6 mi6 mi6 mi6 mi6 mi6 mi6 mi6 mi6 mi6 mi6 mi6 mi6 mi6 mi6 mi6 mi6 mi6 mi6 mi6 mi6 mi6 mi6 mi
Precipitation 100%80%88%100%100%100%100%100%97%100%99%99%99%100%100%100%100%80%100%100%67%69%69%67%67%60%0%0%0%0%0%0%0%0%0%0%0%0%0%0%0%0%0%5%21%25%35%59%
Humidity 87%89%91%94%97%99%99%99%99%99%99%99%99%99%99%99%98%96%96%96%97%97%95%92%93%95%98%99%99%99%98%97%97%97%96%95%95%93%92%89%83%77%72%69%62%59%73%80%
Dew Point 68°F68°F67°F66°F66°F65°F65°F65°F65°F65°F65°F64°F64°F64°F64°F65°F65°F65°F65°F65°F65°F65°F65°F64°F64°F63°F62°F61°F60°F60°F60°F59°F59°F59°F59°F59°F59°F59°F60°F61°F62°F62°F63°F64°F64°F64°F66°F67°F
Pressure 29.68"29.77"29.85"29.97"30.09"30.15"30.15"30.15"30.12"30.12"30.12"30.09"30.09"30.12"30.12"30.12"30.12"30.12"30.09"30.09"30.06"30.06"30.06"30.06"30.06"30.06"30.06"30.09"30.09"30.06"30.06"30.06"30.03"30.03"30.03"30.03"30.06"30.06"30.09"30.09"30.06"30.06"30.06"30.03"30"29.97"29.97"29.97"
Wind Speed 7.2 mph6.5 mph4 mph1.6 mph2.1 mph3 mph2 mph2.8 mph2.9 mph1.2 mph2.3 mph2.8 mph2.3 mph1.1 mph0.4 mph0.9 mph0.9 mph0.9 mph1.8 mph3.2 mph3.7 mph4.3 mph5.3 mph5.8 mph4.8 mph4.8 mph4.3 mph3.6 mph3.8 mph4.1 mph4.1 mph4.4 mph4.7 mph3.8 mph2.9 mph1.6 mph1 mph1 mph1.6 mph1.8 mph3.6 mph5.1 mph5.3 mph5.7 mph5.8 mph6.2 mph7.1 mph7.9 mph
Wind
Direction

N

N

N
226°
SW
255°
WSW
337°
NNW
319°
NW
355°
N

N

N
51°
NE
50°
NE
58°
ENE
93°
E
112°
ESE
90°
E
97°
E
68°
ENE
30°
NNE
29°
NNE
42°
NE
45°
NE
51°
NE
54°
NE
55°
NE
51°
NE
49°
NE
57°
ENE
41°
NE
32°
NNE
23°
NNE
22°
NNE
41°
NE
30°
NNE
29°
NNE
25°
NNE
30°
NNE
11°
N
82°
E
103°
ESE
147°
SSE
159°
SSE
176°
S
181°
S
176°
S
177°
S
163°
SSE
164°
SSE

Daily Forecast

Date High Low Precip. Humidity
Today
May 22

Rain
81 °F
64 °F
100%
68%
Monday
May 23

Rain
68 °F
61 °F
100%
96%
Tuesday
May 24

Rain
76 °F
60 °F
67%
69%
Wednesday
May 25

Rain
82 °F
62 °F
96%
53%
Thursday
May 26

Rain
71 °F
61 °F
100%
96%
Friday
May 27

Rain
74 °F
57 °F
97%
59%
Saturday
May 28

Clear
84 °F
53 °F
0%
48%
Sunday
May 29

Clouds
87 °F
61 °F
0%
42%
Monday
May 30

Clouds
87 °F
64 °F
0%
46%
Tuesday
May 31

Rain
85 °F
65 °F
68%
59%
Wednesday
Jun 1

Rain
84 °F
67 °F
96%
64%
Thursday
Jun 2

Rain
87 °F
66 °F
100%
51%
Friday
Jun 3

Rain
83 °F
66 °F
74%
59%
Saturday
Jun 4

Rain
89 °F
67 °F
51%
48%
Sunday
Jun 5

Rain
85 °F
64 °F
69%
36%
Monday
Jun 6

Clear
89 °F
61 °F
0%
39%

Temperature 8-14 Day Outlook



Precipitation 8-14 Day Outlook




Quick Links
Chickamauga Lake News
Chickamauga Lake Photos
Chickamauga Lake Videos




About Us
Contact Us
Site Map
Search Site
Advertise With Us
   
www.ChickamaugaLake.info
THE CHICKAMAUGA LAKE WEBSITE

Copyright 2022, Lakes Online
Privacy    |    Legal